Regional Weather Roundup
Issued by NWS

Home | Current Version | Previous Version | Graphics & Text | Print | Product List | Glossary Off
Versions: 1 2 3 4 5 6 7 8 9 10 11 12 13 14 15 16 17 18 19 20 21 22 23 24 25 26 27 28 29 30 31 32 33 34 35 36 37 38 39 40 41 42 43 44 45 46 47 48 49 50

000
ASUS43 KDTX 181610
RWRMI
MICHIGAN HOURLY REGIONAL WEATHER ROUNDUP
NATIONAL WEATHER SERVICE DETROIT/PONTIAC MI
1200 PM EDT THU SEP 18 2014

NOTE: "FAIR" INDICATES FEW OR NO CLOUDS BELOW 12,000 FEET WITH NO
SIGNIFICANT WEATHER AND/OR OBSTRUCTION TO VISIBILITY.

MIZ047>049-052>055-059>063-066>070-074>076-081>083-181700-
SOUTHEAST LOWER MICHIGAN

CITY           SKY/WX    TMP DP  RH WIND       PRES   REMARKS
ADRIAN         SUNNY     65  49  56 NE6       30.15R
ALMA           CLOUDY    53  51  92 NE7       30.19S
ANN ARBOR      MOSUNNY   66  50  56 MISG      30.15R
BAD AXE        CLOUDY    53  46  78 NE9       30.19R
DETROIT CITY     N/A     68  51  54 N8        30.14R
DETROIT        MOSUNNY   66  51  58 N7        30.15R
FLINT          PTSUNNY   62  52  69 N5        30.17R
GROSSE ILE     PTSUNNY   64  54  68 NE8       30.13R
HILLSDALE      SUNNY     64  47  53 CALM      30.15S
HOWELL         CLOUDY    58  51  78 CALM      30.17R

CITY           SKY/WX    TMP DP  RH WIND       PRES   REMARKS
JACKSON        MOSUNNY   65  52  62 VRB5      30.16R
LAMBERTVILLE   SUNNY     64  52  63 SE3       30.14S
LANSING        MOSUNNY   59  51  75 E7        30.18R
LAPEER         NOT AVBL
MASON          CLOUDY    58  51  78 CALM      30.17R
MONROE         PTSUNNY   66  54  63 CALM      30.13R
PONTIAC        PTSUNNY   62  50  64 NE3       30.16R
PORT HOPE        N/A     52  43  71 NE13      30.18R
PORT HURON     CLOUDY    57  52  82 N9        30.15R
TRI CITIES     CLOUDY    54  50  86 NE12      30.20R
YPSILANTI      MOSUNNY   70  52  52 VRB6      30.15R
$$
MIZ043>046-050>051-056>058-064>065-071>073-077>080-181700-
SOUTHWEST LOWER MICHIGAN

CITY           SKY/WX    TMP DP  RH WIND       PRES   REMARKS
BATTLE CREEK   SUNNY     63  52  67 E6        30.17R
BENTON HARBOR    N/A    N/A N/A N/A MISG      30.15S
BIG RAPIDS     CLOUDY    54  51  91 SE6       30.18R
COLDWATER      SUNNY     65  47  51 N5        30.16R
HOLLAND        MOSUNNY   65  52  62 E5        30.17S
GRAND RAPIDS   PTSUNNY   61  54  77 E5        30.18R
KALAMAZOO      MOSUNNY   64  49  57 CALM      30.17R
MARSHALL       SUNNY     61  52  72 N3        30.16S
MUSKEGON       CLOUDY    62  52  69 E5        30.17S
$$
MIZ016>042-181700-
NORTHERN LOWER MICHIGAN

CITY           SKY/WX    TMP DP  RH WIND       PRES   REMARKS
ALPENA         CLOUDY    48  36  63 NE7       30.23R
BEAVER ISLAND  CLOUDY    51  39  63 E8        30.22R
BELLAIRE       PTSUNNY   54  38  56 NE6       30.21R
CADILLAC       CLOUDY    51  46  84 E5        30.18R
CHARLEVOIX     MOSUNNY   51  40  65 E6        30.24R
FRANKFORT      SUNNY     57  44  60 NE5       30.19R
GAYLORD        CLOUDY    47  36  65 E7        30.20S
GRAYLING       CLOUDY    49  42  76 E5        30.21S
HARBOR SPRINGS PTSUNNY   51  38  61 NE7       30.22R
HOUGHTON LAKE  CLOUDY    49  44  83 E6        30.20R
MANISTEE       MOSUNNY   55  43  62 CALM      30.20R
OSCODA         CLOUDY    50  40  68 NE9       30.21R
PELLSTON       MOSUNNY   51  36  56 E8        30.23R
TRAVERSE CITY  PTSUNNY   55  41  59 N7        30.19R
$$
MIZ007>008-015-181700-
EASTERN UPPER MICHIGAN

CITY           SKY/WX    TMP DP  RH WIND       PRES   REMARKS
KINROSS        CLOUDY    45  36  70 NE5       30.24S
MACKINAC ISLAN CLOUDY    47  38  69 E9G16     30.23R
NEWBERRY       MOSUNNY   46  34  62 SE3       30.23R
S. S. MARIE    MOSUNNY   47  31  53 VRB5      30.24S
$$
MIZ004>006-011>014-085-181700-
CENTRAL UPPER MICHIGAN

CITY           SKY/WX    TMP DP  RH WIND       PRES   REMARKS
MANISTIQUE     CLOUDY    49  38  67 NE3       30.23R
ESCANABA       SUNNY     46  36  66 CALM      30.23R
MENOMINEE      CLOUDY    52  39  62 E8        30.22R
SAWYER-GWINN   MOSUNNY   46  34  61 S3        30.22R
$$
MIZ001>003-009>011-084-181700-
WESTERN UPPER MICHIGAN

CITY           SKY/WX    TMP DP  RH WIND       PRES   REMARKS
IRON MOUNTAIN  PTSUNNY   48  35  60 VRB5      30.21R
HOUGHTON       CLOUDY    45  35  68 SE8       30.20S
COPPER HARBOR    N/A     46  33  60 S5        30.23R
IRONWOOD       CLOUDY    46  41  81 SE7       30.15S
$$

ABBREVIATIONS USED IN REMARKS
   TC - TEMPERATURE IN CELSIUS
  WCI - WIND CHILL INDEX
   HX - HEAT INDEX
  VSB - VISIBILITY



USA.gov is the U.S. government's official web portal to all federal, state and local government web resources and services.